Regional Weather Roundup
Issued by NWS Sioux Falls, SD

Home | Current Version | Previous Version | Text Only | Print | Product List | Glossary On
Versions: 1 2 3 4 5 6 7 8 9 10 11 12 13 14 15 16 17 18 19 20 21 22 23 24 25 26 27 28 29 30 31 32 33 34 35 36 37 38 39 40 41 42 43 44 45 46 47 48 49 50
000
ASUS43 KFSD 280802
RWRFSD

WEATHER ROUNDUP FOR SE SOUTH DAKOTA/SW MINNESOTA/NW IOWA
NATIONAL WEATHER SERVICE SIOUX FALLS SD
200 AM CST WED JAN 28 2015

NOTE: "FAIR" INDICATES FEW OR NO CLOUDS BELOW 12,000 FEET WITH NO
SIGNIFICANT WEATHER AND OR OBSTRUCTIONS TO VISIBILITY.


SDZ038>040-050-052>070-280900-
SOUTHEAST SOUTH DAKOTA

CITY           SKY/WX    TMP DP  RH WIND       PRES   REMARKS
CHAMBERLAIN    NOT AVBL
HURON          PTCLDY    35  31  85 SE13      29.80F WCI  26
MADISON        FAIR      32  32 100 S15       29.86F WCI  22
MITCHELL       MOCLDY    36  31  82 SE14      29.83F
SIOUX FALLS    PTCLDY    35  30  82 S13       29.90F WCI  26
WINNER         FAIR      48  32  53 SW10      29.76F
YANKTON        CLEAR     34  28  80 E9        29.89F WCI  26
$$

MNZ071-072-080-081-089-090-097-098-280900-
SOUTHWEST MINNESOTA

CITY           SKY/WX    TMP DP  RH WIND       PRES   REMARKS
FAIRMONT       CLOUDY    30  27  86 SE20      30.01F WCI  18
JACKSON        CLOUDY    32  30  93 SE14      29.99S WCI  22
LUVERNE        PTCLDY    34  32  93 S10       29.94F WCI  26
MARSHALL       CLEAR     32  28  86 SE14      29.94F WCI  22
MONTEVIDEO     PTCLDY    32  32 100 S15G21    29.96F WCI  22
PIPESTONE      CLEAR     34  30  86 S15       29.89F WCI  24
REDWOOD FALLS  CLOUDY    33  31  92 SE17      30.00S WCI  22
TRACY          CLEAR     33  32  94 S13       29.95F WCI  24
WINDOM         MOCLDY    30  30 100 SE15G23   29.98S FOG     WCI  19
WORTHINGTON    CLEAR     32  28  86 S13G18    29.96S WCI  22
$$

IAZ001>003-012>014-020>022-031-032-NEZ013-014-SDZ071-280900-
NORTHWEST IOWA

CITY           SKY/WX    TMP DP  RH WIND       PRES   REMARKS
ESTHERVILLE    CLOUDY    30  29  96 S18       30.01S FOG     WCI  18
SIOUX CITY     CLEAR     31  28  89 SE8       29.94F WCI  23
SPENCER        CLEAR     31  28  89 SE15      29.99F WCI  20
$$

ABBREVIATIONS USED IN REMARKS
   TC - TEMPERATURE IN CELSIUS
  WCI - WIND CHILL INDEX
   HX - HEAT INDEX
  VSB - VISIBILITY



USA.gov is the U.S. government's official web portal to all federal, state and local government web resources and services.